Notices

What's New in latest Release from April 7th, 2021:

- Updated Glossary, including Speed of Maximum Gust, and Total Hourly Precipitation

- Updated national and regional climate services offices contacts and prices information

- Addition of station inventory lists for 1981-2010, 1971-2000, and 1961-1990 Normals.

If you haven't already, please take our survey and provide feedback about our website: https://eccc.sondage-survey.ca/f/LanguageSelection.aspx?s=442ca660-fcf1-47c0-95a9-59707d6fd709

Hourly Data Report for August 20, 2019

TORONTO CITY
ONTARIO
Current Station Operator: ECCC - MSC

43°40'00.000" N
79°24'00.000" W
112.50 m
6158355
71508
XTO

Download Data

Hourly Data (August 2019)
Hourly Data Report for August 20, 2019
TIME
LST
Temp Definition
°C
Dew Point Definition
°C
Rel Hum Definition
%
Precip. Amount Definition
mm

Wind Dir Definition
10's deg

Wind Spd Definition
km/h
Visibility Definition
km
Stn Press Definition
kPa
Hmdx Definition


Wind Chill Definition


Weather Definition


00:00 19.0 12.0 64 0.0       100.48     LegendNANA
01:00 18.6 12.3 67 0.0       100.49     LegendNANA
02:00 18.4 12.4 68 0.0       100.50     LegendNANA
03:00 17.7 12.9 74 0.0       100.53     LegendNANA
04:00 17.5 13.1 75 0.0       100.55     LegendNANA
05:00 17.9 13.0 73 0.0       100.58     LegendNANA
06:00 19.1 13.3 69 0.0       100.57     LegendNANA
07:00 21.0 14.4 66 0.0       100.55 25   LegendNANA
08:00 22.1 15.2 65 0.0       100.53 26   LegendNANA
09:00 22.8 13.3 55 0.0       100.49 26   LegendNANA
10:00 23.3 14.6 58 0.0       100.51 27   LegendNANA
11:00 23.9 15.5 59 0.0       100.58 28   LegendNANA
12:00 25.2 16.5 58 0.0       100.49 30   LegendNANA
13:00 26.5 17.7 58 0.0       100.44 32   LegendNANA
14:00 25.8 17.2 59 0.0       100.36 31   LegendNANA
15:00 25.3 17.7 63 0.0       100.27 31   LegendNANA
16:00 25.3 16.9 60 0.0       100.22 31   LegendNANA
17:00 24.9 17.8 65 0.0       100.15 31   LegendNANA
18:00 23.9 17.8 69 0.0       100.10 30   LegendNANA
19:00 23.5 18.2 72 0.0       100.06 30   LegendNANA
20:00 23.4 18.4 73 0.0       100.05 30   LegendNANA
21:00 23.3 18.7 75 0.0       100.01 30   LegendNANA
22:00 23.4 18.6 74 0.0       100.02 30   LegendNANA
23:00 23.1 18.7 76 0.0       99.95 30   LegendNANA

Notes on Data Quality.

Legend

  • E = Estimated
  • M = Missing
  • NA = Not Available*
  • [empty] = Indicates an unobserved value
Date modified: